User: anonymous   Login
Location: Unspecified
(0.0000°N, 0.0000°E)
Time: 11:42:28
(UTC+02:00)
Language:

AO-7 - Orbit

View from above orbital plane
View from above orbital plane
View from above satellite
View from above satellite

Ground track
Ground track

The orbit data is extracted from the following two-line orbital elements,

1 07530U 74089B   15115.50816817 -.00000015  00000-0  17611-3 0  9998
2 07530 101.5161 092.5588 0012357 047.1441 101.0484 12.53613725850655
Epoch (UTC): 25 April 2015 12:11:45
Eccentricity: 0.0012357
inclination: 101.5161°
perigee height: 1440 km
apogee height: 1459 km
right ascension of ascending node: 92.5588°
argument of perigee: 47.1441°
revolutions per day: 12.53613725
mean anomaly at epoch: 101.0484°
orbit number at epoch: 85065

The dashed part of the orbit path shows where the satellite is in the earth's shadow,  

DLR